• In Russia
  • List of Countries
  • For 7 days
  • Water Temperature
  • Satellite Maps
  • Weather Map
  • Weather Widgets
  • user-avatar
    Login

    Hourly Weather Podlopatki

    Today, 22 February, Friday

    Time Temperature Precipitation Wind Pressure Humidity
    00:00 -11°C° 0 mm 1 mps 719 mmHg 78%
    01:00 -12°C° 0 mm 1 mps 719 mmHg 78%
    02:00 -14°C° 0 mm 2 mps 719 mmHg 78%
    03:00 -14°C° 0 mm 2 mps 718 mmHg 79%
    04:00 -14°C° 0 mm 2 mps 718 mmHg 79%
    05:00 -14°C° 0 mm 2 mps 719 mmHg 79%
    06:00 -15°C° 0 mm 2 mps 719 mmHg 80%
    07:00 -14°C° 0 mm 2 mps 719 mmHg 78%
    08:00 -12°C° 0 mm 2 mps 719 mmHg 73%
    09:00 -9°C° 0 mm 2 mps 719 mmHg 67%
    10:00 -7°C° 0 mm 2 mps 719 mmHg 61%
    11:00 -5°C° 0 mm 2 mps 718 mmHg 59%
    12:00 -4°C° 0 mm 2 mps 718 mmHg 57%
    13:00 -3°C° 0 mm 2 mps 717 mmHg 55%
    14:00 -3°C° 0 mm 2 mps 718 mmHg 57%
    15:00 -1°C° 0 mm 1 mps 718 mmHg 60%
    16:00 -2°C° 0 mm 1 mps 718 mmHg 63%
    17:00 -3°C° 0 mm 1 mps 718 mmHg 65%
    18:00 -4°C° 0 mm 1 mps 719 mmHg 67%
    19:00 -4°C° 0 mm 1 mps 719 mmHg 68%
    20:00 -4°C° 0 mm 1 mps 719 mmHg 72%
    21:00 -4°C° 0 mm 1 mps 720 mmHg 75%
    22:00 -4°C° 0 mm 1 mps 720 mmHg 79%
    23:00 -4°C° 0.1 mm 1 mps 720 mmHg 83%

    Tomorrow, 23 February, Saturday

    Time Temperature Precipitation Wind Pressure Humidity
    00:00 -4°C° 0.1 mm 1 mps 721 mmHg 87%
    01:00 -4°C° 0.1 mm 1 mps 721 mmHg 91%
    02:00 -7°C° 0 mm 2 mps 721 mmHg 90%
    03:00 -8°C° 0 mm 2 mps 721 mmHg 89%
    04:00 -9°C° 0 mm 2 mps 722 mmHg 88%
    05:00 -10°C° 0 mm 2 mps 722 mmHg 88%
    06:00 -10°C° 0 mm 1 mps 722 mmHg 88%
    07:00 -11°C° 0 mm 1 mps 722 mmHg 88%
    08:00 -9°C° 0 mm 1 mps 722 mmHg 81%
    09:00 -8°C° 0 mm 2 mps 723 mmHg 74%
    10:00 -6°C° 0 mm 2 mps 723 mmHg 67%
    11:00 -5°C° 0 mm 2 mps 722 mmHg 64%
    12:00 -5°C° 0 mm 2 mps 722 mmHg 61%
    13:00 -4°C° 0 mm 2 mps 722 mmHg 58%
    14:00 -4°C° 0 mm 2 mps 722 mmHg 60%
    15:00 -4°C° 0 mm 2 mps 721 mmHg 61%
    16:00 -2°C° 0 mm 1 mps 721 mmHg 63%
    17:00 -4°C° 0 mm 1 mps 721 mmHg 67%
    18:00 -7°C° 0 mm 1 mps 722 mmHg 71%
    19:00 -9°C° 0 mm 1 mps 722 mmHg 75%
    20:00 -9°C° 0 mm 1 mps 722 mmHg 77%
    21:00 -10°C° 0 mm 1 mps 722 mmHg 79%
    22:00 -10°C° 0 mm 1 mps 722 mmHg 82%
    23:00 -11°C° 0 mm 1 mps 722 mmHg 83%

    Day after tomorrow, 24 February, Sunday

    Time Temperature Precipitation Wind Pressure Humidity
    00:00 -11°C° 0 mm 1 mps 722 mmHg 85%
    01:00 -11°C° 0 mm 1 mps 722 mmHg 86%
    02:00 -12°C° 0 mm 1 mps 722 mmHg 87%
    03:00 -12°C° 0 mm 1 mps 722 mmHg 88%
    04:00 -14°C° 0 mm 2 mps 722 mmHg 89%
    05:00 -15°C° 0 mm 2 mps 722 mmHg 90%
    06:00 -15°C° 0 mm 2 mps 722 mmHg 90%
    07:00 -15°C° 0 mm 2 mps 722 mmHg 91%
    08:00 -13°C° 0 mm 2 mps 722 mmHg 86%
    09:00 -10°C° 0 mm 2 mps 721 mmHg 81%
    10:00 -8°C° 0 mm 2 mps 721 mmHg 76%
    11:00 -7°C° 0 mm 2 mps 721 mmHg 73%
    12:00 -6°C° 0 mm 3 mps 720 mmHg 71%
    13:00 -5°C° 0 mm 3 mps 720 mmHg 69%
    14:00 -5°C° 0 mm 3 mps 719 mmHg 69%
    15:00 -5°C° 0 mm 3 mps 719 mmHg 70%
    16:00 -5°C° 0 mm 3 mps 719 mmHg 71%
    17:00 -6°C° 0 mm 2 mps 719 mmHg 76%
    18:00 -7°C° 0 mm 2 mps 719 mmHg 80%
    19:00 -9°C° 0 mm 2 mps 719 mmHg 85%
    20:00 -10°C° 0 mm 2 mps 719 mmHg 86%
    21:00 -10°C° 0 mm 2 mps 719 mmHg 87%
    22:00 -12°C° 0 mm 2 mps 719 mmHg 89%
    23:00 -12°C° 0 mm 2 mps 718 mmHg 88%

    25 February, Monday

    Time Temperature Precipitation Wind Pressure Humidity
    00:00 -12°C° 0 mm 2 mps 718 mmHg 88%
    01:00 -13°C° 0 mm 2 mps 718 mmHg 88%
    02:00 -13°C° 0 mm 2 mps 718 mmHg 88%
    03:00 -13°C° 0 mm 2 mps 717 mmHg 87%
    04:00 -14°C° 0 mm 2 mps 717 mmHg 87%
    05:00 -14°C° 0 mm 2 mps 717 mmHg 86%
    06:00 -14°C° 0 mm 2 mps 717 mmHg 86%
    07:00 -14°C° 0 mm 2 mps 717 mmHg 86%
    08:00 -12°C° 0 mm 2 mps 717 mmHg 79%
    09:00 -9°C° 0 mm 2 mps 716 mmHg 72%
    10:00 -8°C° 0 mm 3 mps 716 mmHg 65%
    11:00 -6°C° 0 mm 3 mps 716 mmHg 62%
    12:00 -5°C° 0 mm 3 mps 715 mmHg 60%
    13:00 -2°C° 0 mm 3 mps 715 mmHg 58%
    14:00 -2°C° 0 mm 3 mps 714 mmHg 59%
    15:00 -4°C° 0 mm 3 mps 714 mmHg 61%
    16:00 -3°C° 0 mm 2 mps 714 mmHg 63%
    17:00 -4°C° 0 mm 2 mps 714 mmHg 67%
    18:00 -6°C° 0 mm 2 mps 715 mmHg 72%
    19:00 -7°C° 0 mm 1 mps 715 mmHg 77%
    20:00 -8°C° 0 mm 1 mps 715 mmHg 78%
    21:00 -8°C° 0 mm 1 mps 716 mmHg 80%
    22:00 -9°C° 0 mm 1 mps 716 mmHg 81%
    23:00 -9°C° 0 mm 1 mps 716 mmHg 81%

    26 February, Tuesday

    Time Temperature Precipitation Wind Pressure Humidity
    00:00 -10°C° 0 mm 1 mps 716 mmHg 82%
    01:00 -10°C° 0 mm 1 mps 716 mmHg 82%
    02:00 -11°C° 0 mm 1 mps 715 mmHg 83%
    03:00 -11°C° 0 mm 1 mps 715 mmHg 83%
    04:00 -11°C° 0 mm 1 mps 715 mmHg 83%
    05:00 -12°C° 0 mm 1 mps 715 mmHg 83%
    06:00 -12°C° 0 mm 1 mps 715 mmHg 83%
    07:00 -12°C° 0 mm 1 mps 715 mmHg 83%
    08:00 -10°C° 0 mm 1 mps 715 mmHg 76%
    09:00 -8°C° 0 mm 1 mps 715 mmHg 70%
    10:00 -6°C° 0 mm 1 mps 715 mmHg 63%
    11:00 -6°C° 0 mm 2 mps 715 mmHg 61%
    12:00 -4°C° 0 mm 2 mps 714 mmHg 59%
    13:00 -3°C° 0 mm 2 mps 714 mmHg 57%
    14:00 -3°C° 0 mm 2 mps 713 mmHg 59%
    15:00 -3°C° 0 mm 2 mps 713 mmHg 61%
    16:00 -1°C° 0 mm 1 mps 713 mmHg 63%
    17:00 -3°C° 0 mm 1 mps 713 mmHg 68%
    18:00 -6°C° 0 mm 0 mps 714 mmHg 72%
    19:00 -8°C° 0 mm 0 mps 714 mmHg 76%
    20:00 -9°C° 0 mm 0 mps 714 mmHg 77%
    21:00 -9°C° 0 mm 0 mps 714 mmHg 78%
    22:00 -10°C° 0 mm 0 mps 714 mmHg 80%
    23:00 -10°C° 0 mm 0 mps 714 mmHg 81%

    27 February, Wednesday

    Time Temperature Precipitation Wind Pressure Humidity
    00:00 -10°C° 0 mm 1 mps 714 mmHg 82%
    01:00 -11°C° 0 mm 1 mps 714 mmHg 84%
    02:00 -11°C° 0 mm 1 mps 714 mmHg 85%
    03:00 -11°C° 0 mm 1 mps 714 mmHg 86%
    04:00 -11°C° 0 mm 1 mps 714 mmHg 87%
    05:00 -12°C° 0 mm 1 mps 714 mmHg 88%
    06:00 -12°C° 0 mm 1 mps 715 mmHg 89%
    07:00 -12°C° 0 mm 1 mps 715 mmHg 90%
    08:00 -10°C° 0 mm 1 mps 715 mmHg 84%
    09:00 -8°C° 0 mm 1 mps 715 mmHg 79%
    10:00 -6°C° 0 mm 1 mps 715 mmHg 74%
    11:00 -4°C° 0 mm 1 mps 715 mmHg 71%
    12:00 -2°C° 0 mm 1 mps 715 mmHg 68%
    13:00 -1°C° 0 mm 1 mps 714 mmHg 65%
    14:00 -1°C° 0 mm 1 mps 714 mmHg 66%
    15:00 -1°C° 0 mm 1 mps 714 mmHg 67%
    16:00 -1°C° 0 mm 1 mps 714 mmHg 68%
    17:00 -3°C° 0 mm 1 mps 714 mmHg 72%
    18:00 -6°C° 0 mm 1 mps 715 mmHg 76%
    19:00 -7°C° 0 mm 1 mps 715 mmHg 80%
    20:00 -8°C° 0 mm 1 mps 715 mmHg 82%
    21:00 -8°C° 0 mm 1 mps 715 mmHg 84%
    22:00 -9°C° 0 mm 1 mps 715 mmHg 85%
    23:00 -9°C° 0 mm 1 mps 715 mmHg 87%
    Show more